OBJECT PH

Last updated on Fri Aug 17 2018 00:15:07 GMT+0000 (Coordinated Universal Time)

1 43596U 98067PH 18228.58651135 -.00000482 00000-0 00000+0 0 9996 2 43596 51.6421 77.6888 0004889 54.2734 305.9216 15.54153302 135
UTC large
Height (km)
Speed (km/s)
/
Latitude / Longitude
Inclination (degrees)
Orbital Period (minutes)
Azimuth
Elevation
Range (km)
Doppler Factor

Next 0 passes for location: London (51.5072 / 0.1276)

Sorry there are no passes over London.